Hourly Weather Bolshie Gridyushki

Today, 17 June, Thursday

Time Temperature Precipitation Wind Pressure Humidity
00:00 +12°C° 0 mm 2 mps 753 mmHg 75%
01:00 +12°C° 0 mm 1 mps 753 mmHg 76%
02:00 +12°C° 0 mm 1 mps 753 mmHg 78%
03:00 +12°C° 0 mm 1 mps 753 mmHg 78%
04:00 +12°C° 0 mm 1 mps 753 mmHg 78%
05:00 +13°C° 0 mm 1 mps 753 mmHg 79%
06:00 +15°C° 0 mm 1 mps 754 mmHg 73%
07:00 +18°C° 0 mm 1 mps 754 mmHg 68%
08:00 +20°C° 0 mm 1 mps 754 mmHg 62%
09:00 +21°C° 0 mm 1 mps 755 mmHg 58%
10:00 +22°C° 0 mm 1 mps 755 mmHg 53%
11:00 +24°C° 0 mm 1 mps 755 mmHg 49%
12:00 +24°C° 0 mm 1 mps 755 mmHg 47%
13:00 +25°C° 0 mm 1 mps 755 mmHg 45%
14:00 +26°C° 0 mm 1 mps 755 mmHg 44%
15:00 +26°C° 0 mm 1 mps 755 mmHg 46%
16:00 +25°C° 0 mm 1 mps 755 mmHg 48%
17:00 +25°C° 0 mm 1 mps 755 mmHg 50%
18:00 +24°C° 0 mm 1 mps 755 mmHg 57%
19:00 +22°C° 0 mm 1 mps 755 mmHg 64%
20:00 +20°C° 0 mm 1 mps 755 mmHg 71%
21:00 +19°C° 0 mm 1 mps 755 mmHg 73%
22:00 +18°C° 0 mm 1 mps 755 mmHg 74%
23:00 +16°C° 0 mm 2 mps 755 mmHg 76%

Tomorrow, 18 June, Friday

Time Temperature Precipitation Wind Pressure Humidity
00:00 +16°C° 0 mm 2 mps 755 mmHg 79%
01:00 +15°C° 0 mm 2 mps 755 mmHg 82%
02:00 +14°C° 0 mm 2 mps 755 mmHg 85%
03:00 +15°C° 0 mm 2 mps 755 mmHg 86%
04:00 +15°C° 0 mm 2 mps 756 mmHg 86%
05:00 +16°C° 0 mm 2 mps 756 mmHg 86%
06:00 +18°C° 0 mm 2 mps 756 mmHg 81%
07:00 +20°C° 0 mm 2 mps 756 mmHg 75%
08:00 +21°C° 0 mm 2 mps 756 mmHg 70%
09:00 +24°C° 0 mm 2 mps 756 mmHg 64%
10:00 +25°C° 0 mm 2 mps 756 mmHg 59%
11:00 +26°C° 0 mm 3 mps 755 mmHg 53%
12:00 +27°C° 0 mm 3 mps 755 mmHg 51%
13:00 +27°C° 0 mm 3 mps 755 mmHg 49%
14:00 +28°C° 0 mm 3 mps 755 mmHg 48%
15:00 +27°C° 0 mm 3 mps 755 mmHg 51%
16:00 +27°C° 0 mm 3 mps 754 mmHg 54%
17:00 +27°C° 0 mm 3 mps 754 mmHg 57%
18:00 +25°C° 0 mm 3 mps 754 mmHg 64%
19:00 +22°C° 0 mm 3 mps 754 mmHg 72%
20:00 +20°C° 0 mm 3 mps 754 mmHg 79%
21:00 +19°C° 0 mm 3 mps 754 mmHg 82%
22:00 +18°C° 0 mm 3 mps 754 mmHg 85%
23:00 +17°C° 0 mm 3 mps 754 mmHg 88%

Day after tomorrow, 19 June, Saturday

Time Temperature Precipitation Wind Pressure Humidity
00:00 +17°C° 0 mm 3 mps 754 mmHg 89%
01:00 +16°C° 0 mm 3 mps 754 mmHg 90%
02:00 +16°C° 0 mm 2 mps 754 mmHg 91%
03:00 +16°C° 0 mm 2 mps 754 mmHg 91%
04:00 +16°C° 0 mm 2 mps 754 mmHg 90%
05:00 +16°C° 0 mm 2 mps 755 mmHg 90%
06:00 +18°C° 0 mm 3 mps 755 mmHg 84%
07:00 +20°C° 0 mm 3 mps 755 mmHg 78%
08:00 +22°C° 0 mm 3 mps 755 mmHg 72%
09:00 +24°C° 0 mm 3 mps 755 mmHg 67%
10:00 +25°C° 0 mm 3 mps 754 mmHg 63%
11:00 +27°C° 0 mm 2 mps 754 mmHg 58%
12:00 +27°C° 0 mm 2 mps 754 mmHg 56%
13:00 +28°C° 0 mm 2 mps 754 mmHg 54%
14:00 +29°C° 0 mm 2 mps 753 mmHg 51%
15:00 +29°C° 0 mm 2 mps 753 mmHg 53%
16:00 +29°C° 0 mm 2 mps 753 mmHg 54%
17:00 +28°C° 0 mm 2 mps 752 mmHg 56%
18:00 +27°C° 0 mm 2 mps 752 mmHg 64%
19:00 +25°C° 0 mm 2 mps 752 mmHg 71%
20:00 +23°C° 0 mm 2 mps 752 mmHg 79%
21:00 +21°C° 0 mm 2 mps 752 mmHg 82%
22:00 +20°C° 0 mm 3 mps 753 mmHg 86%
23:00 +19°C° 0 mm 3 mps 753 mmHg 89%

20 June, Sunday

Time Temperature Precipitation Wind Pressure Humidity
00:00 +18°C° 0 mm 3 mps 753 mmHg 90%
01:00 +18°C° 0 mm 2 mps 753 mmHg 91%
02:00 +17°C° 0 mm 2 mps 753 mmHg 92%
03:00 +17°C° 0 mm 2 mps 753 mmHg 91%
04:00 +18°C° 0 mm 2 mps 753 mmHg 91%
05:00 +18°C° 0 mm 2 mps 753 mmHg 90%
06:00 +20°C° 0 mm 2 mps 753 mmHg 85%
07:00 +21°C° 0 mm 2 mps 753 mmHg 79%
08:00 +24°C° 0 mm 3 mps 753 mmHg 73%
09:00 +25°C° 0 mm 3 mps 752 mmHg 68%
10:00 +26°C° 0 mm 2 mps 752 mmHg 64%
11:00 +28°C° 0 mm 2 mps 752 mmHg 60%
12:00 +28°C° 0.1 mm 3 mps 752 mmHg 61%
13:00 +28°C° 0.1 mm 3 mps 752 mmHg 63%
14:00 +28°C° 0.1 mm 3 mps 751 mmHg 65%
15:00 +28°C° 0.1 mm 3 mps 751 mmHg 64%
16:00 +28°C° 0.1 mm 2 mps 751 mmHg 63%
17:00 +29°C° 0.1 mm 2 mps 751 mmHg 62%
18:00 +27°C° 0.1 mm 2 mps 751 mmHg 68%
19:00 +26°C° 0.1 mm 2 mps 750 mmHg 75%
20:00 +24°C° 0.1 mm 3 mps 750 mmHg 82%
21:00 +22°C° 0 mm 3 mps 750 mmHg 85%
22:00 +21°C° 0 mm 3 mps 751 mmHg 89%
23:00 +20°C° 0 mm 3 mps 751 mmHg 93%

21 June, Monday

Time Temperature Precipitation Wind Pressure Humidity
00:00 +20°C° 0 mm 2 mps 751 mmHg 93%
01:00 +19°C° 0 mm 2 mps 751 mmHg 94%
02:00 +19°C° 0 mm 2 mps 751 mmHg 94%
03:00 +19°C° 0 mm 2 mps 751 mmHg 93%
04:00 +19°C° 0 mm 2 mps 751 mmHg 93%
05:00 +19°C° 0 mm 2 mps 751 mmHg 92%
06:00 +20°C° 0 mm 3 mps 751 mmHg 85%
07:00 +22°C° 0 mm 3 mps 751 mmHg 78%
08:00 +25°C° 0 mm 4 mps 751 mmHg 71%
09:00 +26°C° 0 mm 4 mps 751 mmHg 65%
10:00 +27°C° 0 mm 4 mps 750 mmHg 60%
11:00 +28°C° 0 mm 4 mps 750 mmHg 54%
12:00 +29°C° 0 mm 4 mps 750 mmHg 52%
13:00 +30°C° 0 mm 4 mps 750 mmHg 51%
14:00 +30°C° 0 mm 4 mps 750 mmHg 49%
15:00 +30°C° 0 mm 4 mps 749 mmHg 53%
16:00 +29°C° 0 mm 4 mps 749 mmHg 57%
17:00 +28°C° 0 mm 4 mps 749 mmHg 61%
18:00 +27°C° 0 mm 4 mps 749 mmHg 67%
19:00 +25°C° 0 mm 3 mps 749 mmHg 73%
20:00 +22°C° 0 mm 3 mps 749 mmHg 79%
21:00 +22°C° 0 mm 3 mps 749 mmHg 82%
22:00 +21°C° 0 mm 3 mps 749 mmHg 85%
23:00 +20°C° 0 mm 3 mps 749 mmHg 88%

22 June, Tuesday

Time Temperature Precipitation Wind Pressure Humidity
00:00 +20°C° 0 mm 3 mps 749 mmHg 89%
01:00 +19°C° 0 mm 3 mps 748 mmHg 91%
02:00 +19°C° 0 mm 3 mps 748 mmHg 92%
03:00 +19°C° 0 mm 3 mps 748 mmHg 93%
04:00 +20°C° 0 mm 3 mps 748 mmHg 93%
05:00 +20°C° 0 mm 3 mps 748 mmHg 93%
06:00 +21°C° 0 mm 4 mps 748 mmHg 87%
07:00 +23°C° 0 mm 4 mps 748 mmHg 81%
08:00 +26°C° 0 mm 5 mps 748 mmHg 75%
09:00 +27°C° 0 mm 5 mps 748 mmHg 70%
10:00 +28°C° 0 mm 5 mps 748 mmHg 65%
11:00 +29°C° 0 mm 6 mps 748 mmHg 59%
12:00 +29°C° 0 mm 5 mps 748 mmHg 61%
13:00 +29°C° 0 mm 5 mps 748 mmHg 63%
14:00 +29°C° 0 mm 4 mps 748 mmHg 64%
15:00 +28°C° 0.1 mm 4 mps 748 mmHg 66%
16:00 +28°C° 0.1 mm 4 mps 748 mmHg 68%
17:00 +28°C° 0.1 mm 4 mps 748 mmHg 70%
18:00 +27°C° 0.1 mm 4 mps 748 mmHg 72%
19:00 +27°C° 0.1 mm 4 mps 747 mmHg 75%
20:00 +26°C° 0.1 mm 4 mps 747 mmHg 78%
21:00 +25°C° 0 mm 4 mps 748 mmHg 80%
22:00 +23°C° 0 mm 4 mps 748 mmHg 83%
23:00 +23°C° 0 mm 4 mps 748 mmHg 85%
Show more